Regional Weather Roundup
Issued by NWS Lake Charles, LA

Home | Current Version | Previous Version | Text Only | Print | Product List | Glossary On
Versions: 1 2 3 4 5 6 7 8 9 10 11 12 13 14 15 16 17 18 19 20 21 22 23 24 25 26 27 28 29 30 31 32 33 34 35 36 37 38 39 40 41 42 43 44 45 46 47 48 49 50
994
ASUS44 KLCH 280110
RWRLCH
REGIONAL WEATHER ROUNDUP
NATIONAL WEATHER SERVICE LAKE CHARLES LA
800 PM CDT SAT MAY 27 2017

Note: "fair" indicates few or no clouds below 12,000 feet with no
significant weather and/or obstructions to visibility.


ACROSS SOUTHEAST TEXAS

CITY           SKY/WX    TMP DP  RH WIND       PRES   REMARKS
BEAUMONT       PTCLDY    80  75  84 SE8       29.90F
BEAUMONT CITY  CLOUDY    82  74  77 MISG      29.91S
ORANGE         PTCLDY    81  76  86 S7        29.93S
JASPER           N/A     83  75  75 S6        29.91S
$$

ACROSS CENTRAL LOUISIANA

CITY           SKY/WX    TMP DP  RH WIND       PRES   REMARKS
LEESVILLE      CLEAR     82  74  77 S12       29.88F
FULLERTON      FAIR      82  73  74 CALM      29.87F
ALEXANDRIA INT CLEAR     82  73  74 S9        29.88S
ESLER FIELD    CLEAR     82  73  74 S5        29.90S
DERIDDER       FAIR      83  73  73 S8        29.92F
OAKDALE        CLEAR     81  74  80 S6        29.91S
OPELOUSAS      FAIR      81  74  78 S9        29.92F
$$

ACROSS SOUTHWEST AND SOUTH CENTRAL LOUISIANA

CITY           SKY/WX    TMP DP  RH WIND       PRES   REMARKS
SULPHUR        CLOUDY    82  77  85 S8G16     29.93S
LAKE CHARLES   MOCLDY    81  76  84 S9        29.92S
CHENNAULT INT  MOCLDY    81  75  83 S8        29.93S
CAMERON PHI    MOCLDY    81  79  94 SE13      29.92S FOG
DEQUINCY       FAIR      80  74  82 S9        29.92F
JENNINGS       CLOUDY    82  75  80 S10G16    29.92S
LAFAYETTE      PTCLDY    81  77  88 S8G17     29.93S
NEW IBERIA     MOCLDY    81  75  82 S10       29.95S
ABBEVILLE      MOCLDY    81  79  94 S7        29.95S
PATTERSON      CLOUDY    81  77  88 S12       29.96F
SALT POINT       N/A     80  77  90 VRB5      29.94F
$$

SELECTED SITES ACROSS THE REGION

CITY           SKY/WX    TMP DP  RH WIND       PRES   REMARKS
HOUSTON BUSH   MOCLDY    84  73  69 S13       29.86S
HOUSTON HOBBY  MOCLDY    82  74  76 S12       29.87S
GALVESTON      CLOUDY    83  79  88 SE15      29.90S
COLLEGE STAT   CLEAR     86  72  62 S13       29.83S
CONROE         CLEAR     85  73  67 SE15      29.86S
HUNTSVILLE     CLEAR     88  69  53 S10G22    29.83S
LUFKIN         PTCLDY    82  74  76 S12       29.84F
SHREVEPORT     CLEAR     85  74  69 S12       29.82S
MONROE         CLEAR     85  73  67 S6        29.86S
NATCHEZ MS       N/A     82  74  76 S8        29.92S
BATON ROUGE    PTCLDY    82  72  71 S14       29.93F
N.O. INTL ARPT PTCLDY    82  75  79 S7        29.96F
SLIDELL        CLOUDY    83  76  79 S10       29.95S
$$

MARINE REPORTS

STATION/POSITION TIME  SKY/WX   TEMP    WIND        PRES    VSBY
                                AIR SEA DIR/SP/G
                 (UTC)          (F)     (DEG/KT/KT) (MB)    (MI)
BUOY 30 S HIGH I 0050            80 80  140/ 10/ 12 1012.4F
WVE H/P(F/S)=  3/ 7

SEA RIM ST PARK  0100            80     150/ 11/ 13 1013.4F
PORT ARTHUR      0042            80 80  160/  5/  9 1013.2F
SABINE PASS N    0042            80 83  140/ 11/ 16 1014.4F
TEXAS POINT      NOT AVBL
CALCASIEU PASS   0042            80 81  160/ 11/ 14   N/A
LK CHARLES BEACH 0042            82 77              1013.8R
MARSH ISLAND     0000            80                   N/A
FRESH WATER LOCK 0042            81 82  140/ 10/ 15 1013.8F
AMERADA PASS     0042            81 78  140/  6/  9 1014.5F
$$




USA.gov is the U.S. government's official web portal to all federal, state and local government web resources and services.